TimeAKDT,TemperatureF,Dew PointF,Humidity,Sea Level PressureIn,VisibilityMPH,Wind Direction,Wind SpeedMPH,Gust SpeedMPH,PrecipitationIn,Events,Conditions,WindDirDegrees,DateUTC
12:53 AM,35.1,15.1,44,30.32,10.0,NNE,13.8,-,N/A,,Overcast,30,2012-10-24 08:53:00
1:53 AM,34.0,15.1,46,30.33,10.0,NNE,13.8,-,N/A,,Overcast,30,2012-10-24 09:53:00
2:53 AM,34.0,15.1,46,30.34,10.0,NNE,9.2,19.6,N/A,,Mostly Cloudy,20,2012-10-24 10:53:00
3:53 AM,34.0,14.0,44,30.35,10.0,NNE,10.4,-,N/A,,Overcast,20,2012-10-24 11:53:00
4:53 AM,34.0,14.0,44,30.35,10.0,NNE,13.8,-,N/A,,Overcast,30,2012-10-24 12:53:00
5:53 AM,34.0,14.0,44,30.35,10.0,NNE,11.5,-,N/A,,Overcast,30,2012-10-24 13:53:00
6:53 AM,34.0,15.1,46,30.37,10.0,NNE,11.5,-,N/A,,Overcast,30,2012-10-24 14:53:00
7:53 AM,33.1,15.1,48,30.38,10.0,NNE,12.7,-,N/A,,Overcast,30,2012-10-24 15:53:00
8:53 AM,33.1,15.1,48,30.40,10.0,NNE,13.8,-,N/A,,Overcast,30,2012-10-24 16:53:00
9:53 AM,34.0,15.1,46,30.40,10.0,NNE,18.4,31.1,N/A,,Mostly Cloudy,30,2012-10-24 17:53:00
10:53 AM,34.0,15.1,46,30.41,10.0,NNE,12.7,-,N/A,,Mostly Cloudy,30,2012-10-24 18:53:00
11:53 AM,35.1,14.0,42,30.42,10.0,NE,18.4,26.5,N/A,,Overcast,40,2012-10-24 19:53:00
12:53 PM,37.0,14.0,39,30.43,10.0,NE,23.0,33.4,N/A,,Mostly Cloudy,40,2012-10-24 20:53:00
1:53 PM,37.0,14.0,39,30.44,10.0,NE,20.7,25.3,N/A,,Overcast,40,2012-10-24 21:53:00
2:53 PM,36.0,12.9,39,30.45,10.0,NNE,12.7,21.9,N/A,,Overcast,30,2012-10-24 22:53:00
3:53 PM,36.0,12.9,39,30.46,10.0,NNE,13.8,23.0,N/A,,Overcast,30,2012-10-24 23:53:00
4:53 PM,35.1,10.9,37,30.47,10.0,NNE,16.1,27.6,N/A,,Overcast,20,2012-10-25 00:53:00
5:53 PM,35.1,10.9,37,30.50,10.0,NNE,11.5,21.9,N/A,,Overcast,30,2012-10-25 01:53:00
6:53 PM,35.1,12.0,39,30.51,10.0,NNE,8.1,19.6,N/A,,Overcast,30,2012-10-25 02:53:00
7:53 PM,35.1,12.9,40,30.50,10.0,NNE,8.1,-,N/A,,Overcast,30,2012-10-25 03:53:00
8:53 PM,35.1,12.0,39,30.51,10.0,NNE,10.4,-,N/A,,Overcast,30,2012-10-25 04:53:00
9:53 PM,35.1,12.0,39,30.52,10.0,NNE,8.1,-,N/A,,Overcast,20,2012-10-25 05:53:00
10:53 PM,35.1,12.0,39,30.53,10.0,NNE,10.4,18.4,N/A,,Overcast,30,2012-10-25 06:53:00
11:53 PM,35.1,12.0,39,30.54,10.0,NNE,10.4,-,N/A,,Overcast,20,2012-10-25 07:53:00